Blue Canyon, CA

7:26 PM PST on December 08, 2019 (GMT -0800)
Blue Canyon-Nyack

Weather History for KBLU - July, 2019

Change the Weather History Date:

Monday, July 22, 2019

  Actual Average Record
Temperature  
Mean Temperature 72 °F -  
Max Temperature 79 °F 78 °F 89 °F (2006)
Min Temperature 64 °F 59 °F 40 °F (1987)
Cooling Degree Days 6    
Growing Degree Days 22 (Base 50)    
Moisture  
Dew Point 49 °F    
Average Humidity 47    
Maximum Humidity 63    
Minimum Humidity 36    
Precipitation  
Precipitation 0.00 in - - ()
Sea Level Pressure  
Sea Level Pressure 29.94 in    
Wind  
Wind Speed 4 mph (South)    
Max Wind Speed 14 mph    
Max Gust Speed 18 mph    
Visibility 10 miles    
Events      
Averages and records for this station are not official NWS values.
T = Trace of Precipitation, MM = Missing Value Source: NWS Daily Summary

Daily Weather History Graph

Daily Weather History Graph

Search for Another Location

Airport or City:

Astronomy

Jul. 22, 2019 Rise Set
Actual Time 5:54 AM PDT 8:23 PM PDT
Civil Twilight 5:23 AM PDT 8:54 PM PDT
Nautical Twilight 4:45 AM PDT 9:32 PM PDT
Astronomical Twilight 4:02 AM PDT 10:15 PM PDT
Moon 11:48 PM PDT (7/22) 11:14 AM PDT (7/22)
Length of Visible Light 15h 31m
Length of Day
14h 29m
Waning Gibbous, 71% of the Moon is Illuminated
Jul 22
Waning Gibbous
Jul 24
Last Quarter
Jul 31
New
Aug 7
First Quarter
Aug 15
Full

Hourly Weather History & Observations

Time (PDT) Temp. Dew Point Humidity Pressure Visibility Wind Dir Wind Speed Gust Speed Precip Events Conditions
12:52 AM 66.9 °F 50.0 °F 54% 29.91 in 10.0 mi Calm Calm - N/A   Clear
1:52 AM 66.0 °F 48.9 °F 54% 29.91 in 10.0 mi Calm Calm - N/A   Clear
2:52 AM 66.0 °F 48.9 °F 54% 29.89 in 10.0 mi Calm Calm - N/A   Clear
3:52 AM 66.0 °F 46.9 °F 50% 29.90 in 10.0 mi Calm Calm - N/A   Clear
4:52 AM 64.9 °F 45.0 °F 48% 29.91 in 10.0 mi ESE 3.5 mph - N/A   Clear
5:52 AM 64.9 °F 46.0 °F 50% 29.91 in 10.0 mi ESE 3.5 mph - N/A   Clear
6:52 AM 64.9 °F 46.0 °F 50% 29.92 in 10.0 mi SE 3.5 mph - N/A   Clear
7:52 AM 68.0 °F 50.0 °F 52% 29.94 in 10.0 mi SE 3.5 mph - N/A   Clear
8:52 AM 71.1 °F 50.0 °F 47% 29.95 in 10.0 mi SSE 5.8 mph - N/A   Clear
9:52 AM 73.0 °F 48.0 °F 41% 29.95 in 10.0 mi South 11.5 mph 17.3 mph N/A   Clear
10:52 AM 73.9 °F 48.0 °F 40% 29.96 in 10.0 mi South 11.5 mph - N/A   Clear
11:52 AM 75.0 °F 46.9 °F 37% 29.96 in 10.0 mi South 12.7 mph 18.4 mph N/A   Clear
12:52 PM 75.9 °F 46.9 °F 36% 29.95 in 10.0 mi South 13.8 mph 17.3 mph N/A   Clear
1:52 PM 77.0 °F 50.0 °F 39% 29.95 in 10.0 mi SSW 9.2 mph - N/A   Clear
2:52 PM 78.1 °F 48.9 °F 36% 29.94 in 10.0 mi South 9.2 mph - N/A   Clear
3:52 PM 79.0 °F 50.0 °F 36% 29.93 in 10.0 mi South 9.2 mph - N/A   Clear
4:52 PM 78.1 °F 50.0 °F 37% 29.94 in 10.0 mi South 8.1 mph - N/A   Clear
5:52 PM 77.0 °F 51.1 °F 40% 29.94 in 10.0 mi SSW 6.9 mph - N/A   Clear
6:52 PM 75.9 °F 51.1 °F 42% 29.94 in 10.0 mi SSW 5.8 mph - N/A   Clear
7:52 PM 73.0 °F 52.0 °F 48% 29.94 in 10.0 mi SSW 4.6 mph - N/A   Clear
8:52 PM 70.0 °F 53.1 °F 55% 29.95 in 10.0 mi SW 4.6 mph - N/A   Clear
9:52 PM 66.9 °F 54.0 °F 63% 29.97 in 10.0 mi Calm Calm - N/A   Clear
10:52 PM 66.9 °F 54.0 °F 63% 29.96 in 10.0 mi Calm Calm - N/A   Clear
11:52 PM 64.9 °F 52.0 °F 63% 29.97 in 10.0 mi ESE 3.5 mph - N/A   Clear